(187949) = 2001 KX74 = 2005 QK40

Discovered at Haleakala on 2001-05-27 by NEAT.

Orbit

Orbit type: Main Belt

Note: WebGL enabled browser required.

epoch2023-09-13.0
epoch JD2460200.5
perihelion date2022-05-12.08601
perihelion JD2459711.58601
argument of perihelion (°)39.16856
ascending node (°)214.52527
inclination (°)5.20901
eccentricity0.1408879
perihelion distance (AU)1.9698633
Tisserand w.r.t. Jupiter3.6
ΔV w.r.t. Earth (km/sec)8.8
semimajor axis (AU)2.2929060
mean anomaly (°)138.78961
mean daily motion (°/day)0.28387330
aphelion distance (AU)2.616
period (years)3.47
P-vector [x]-0.28224843
P-vector [y]-0.90141438
P-vector [z]-0.32831074
Q-vector [x]0.95796036
Q-vector [y]-0.28318000
Q-vector [z]-0.04605480
absolute magnitude17.18
phase slope0.15
uncertainty0
referenceMPEC 2024-A74
observations used356
oppositions16
arc length (days)10324
first opposition used1995
last opposition used2024
residual rms (arc-secs)0.73
perturbers coarse indicatorM-v
perturbers precise indicator003Ek
first observation date used1995-10-02.0
last observation date used2024-01-07.0
computer nameMPCLINUX
JD of orbit computation2456731.446285
perihelion JD uncertainty (days)7.4370E-05
argument of perihelion uncertainty (°)5.7251E-05
ascending node uncertainty (°)5.3775E-05
inclination uncertainty (°)4.5225E-06
eccentricity uncertainty 3.7495E-08
perihelion distance uncertainty (AU)8.3896E-08
Minimum Orbit Intersection Distances (in AU)
for orbit epoch: 2460200.5, reference: E2024-A74
Mercury1.50707
Venus1.24563
Earth0.95803
Mars0.43508
Jupiter2.41212
Saturn6.44743
Uranus16.1341
Neptune27.2819

Observations

363 total observations over interval: 1995 10 02.44250 – 2024 01 07.362865
These data are available for download (format description).

Date (UT) J2000 RA J2000 Dec Magn Location Ref
1995 10 02.44250 02 10 43.90 +14 41 32.7 21.4 V 691 – Steward Observatory, Kitt Peak-Spacewatch MPS 250380
1995 10 02.46409 02 10 42.88 +14 41 25.0   691 – Steward Observatory, Kitt Peak-Spacewatch MPS 250380
1995 10 02.48555 02 10 41.88 +14 41 17.5   691 – Steward Observatory, Kitt Peak-Spacewatch MPS 250380
1995 11 25.09646 01 27 12.32 +08 44 50.9   691 – Steward Observatory, Kitt Peak-Spacewatch MPS 250380
1995 11 25.11743 01 27 12.19 +08 44 47.6 18.7 V 691 – Steward Observatory, Kitt Peak-Spacewatch MPS 250380
2001 05 03.47591 14 55 25.52 -14 52 56.6 20.4   608 – Haleakala-AMOS MPS 141602
2001 05 03.48639 14 55 24.96 -14 52 52.4 20.4   608 – Haleakala-AMOS MPS 141602
2001 05 03.49699 14 55 24.42 -14 52 46.8 20.0   608 – Haleakala-AMOS MPS 141602
2001 05 27.35144 14 36 42.55 -11 55 32.3 19.9   608 – Haleakala-AMOS MPS 31815
2001 05 27.36238 14 36 42.20 -11 55 28.1 20.3   608 – Haleakala-AMOS MPS 31815
2001 05 27.37304 14 36 41.79 -11 55 24.9 19.8   608 – Haleakala-AMOS MPS 31815
2001 05 30.22750 14 35 12.01 -11 39 30.0 19.9 V 691 – Steward Observatory, Kitt Peak-Spacewatch MPS 31815
2001 05 30.24832 14 35 11.34 -11 39 23.4 19.9 V 691 – Steward Observatory, Kitt Peak-Spacewatch MPS 31815
2001 05 30.32326 14 35 08.98 -11 38 59.5 20.0 V 691 – Steward Observatory, Kitt Peak-Spacewatch MPS 31815
2004 02 18.24576 09 33 07.63 +05 41 55.0 20.5 V 691 – Steward Observatory, Kitt Peak-Spacewatch MPS 211711
2004 02 18.27396 09 33 05.86 +05 42 05.4 20.5 V 691 – Steward Observatory, Kitt Peak-Spacewatch MPS 211711
2004 02 18.30581 09 33 03.86 +05 42 17.1 20.3 V 691 – Steward Observatory, Kitt Peak-Spacewatch MPS 211711
2004 02 23.28762 09 28 08.45 +06 13 52.3 19.6 C 704 – Lincoln Laboratory ETS, New Mexico MPS 294325
2004 02 23.30060 09 28 07.59 +06 13 57.2 19.7 C 704 – Lincoln Laboratory ETS, New Mexico MPS 294325
2004 02 23.31276 09 28 06.87 +06 14 01.1 20.1 C 704 – Lincoln Laboratory ETS, New Mexico MPS 294325
2004 02 23.33736 09 28 05.47 +06 14 09.8 19.4 C 704 – Lincoln Laboratory ETS, New Mexico MPS 294325
2005 08 26.34621 22 24 27.89 -01 05 47.4 18.8   644 – Palomar Mountain/NEAT MPS 140290
2005 08 26.36809 22 24 26.63 -01 05 57.0 18.8   644 – Palomar Mountain/NEAT MPS 140290
2005 08 26.38901 22 24 25.44 -01 06 06.0 19.0   644 – Palomar Mountain/NEAT MPS 140290
2005 08 27.30671 22 23 35.30 -01 12 40.6 19.2 R 699 – Lowell Observatory-LONEOS MPS 140290
2005 08 27.32876 22 23 33.99 -01 12 50.6   699 – Lowell Observatory-LONEOS MPS 140290
2005 08 27.35077 22 23 32.78 -01 12 59.4   699 – Lowell Observatory-LONEOS MPS 140290
2005 08 27.37280 22 23 31.48 -01 13 09.8   699 – Lowell Observatory-LONEOS MPS 140290
2005 11 01.11393 22 07 39.82 -06 47 01.0 21.3 V G96 – Mt. Lemmon Survey MPS 211711
2005 11 01.12053 22 07 40.00 -06 47 01.1 21.0 V G96 – Mt. Lemmon Survey MPS 211711
2005 11 01.12709 22 07 40.29 -06 47 00.7 21.7 V G96 – Mt. Lemmon Survey MPS 211711
2005 11 01.13367 22 07 40.54 -06 47 00.9 20.9 V G96 – Mt. Lemmon Survey MPS 211711
2006 12 12.31549 06 17 44.64 +16 39 20.3 20.8 V 691 – Steward Observatory, Kitt Peak-Spacewatch MPS 211711
2006 12 12.33286 06 17 43.51 +16 39 18.9 21.1 V 691 – Steward Observatory, Kitt Peak-Spacewatch MPS 211711
2006 12 12.37989 06 17 40.53 +16 39 14.3 21.0 V 691 – Steward Observatory, Kitt Peak-Spacewatch MPS 211711
2006 12 16.21479 06 13 36.86 +16 33 53.5   691 – Steward Observatory, Kitt Peak-Spacewatch MPS 211711
2006 12 16.23560 06 13 35.48 +16 33 52.1   691 – Steward Observatory, Kitt Peak-Spacewatch MPS 211711
2006 12 16.27582 06 13 32.78 +16 33 49.2   691 – Steward Observatory, Kitt Peak-Spacewatch MPS 211711
2008 04 03.44986 16 12 58.03 -20 02 31.1 19.4 V G96 – Mt. Lemmon Survey MPS 244566
2008 04 03.45601 16 12 58.10 -20 02 30.4 19.1 V G96 – Mt. Lemmon Survey MPS 244566
2008 04 03.46204 16 12 58.21 -20 02 29.4 19.1 V G96 – Mt. Lemmon Survey MPS 244566
2008 04 03.46815 16 12 58.35 -20 02 28.1 19.0 V G96 – Mt. Lemmon Survey MPS 244566
2008 04 29.35029 16 10 14.97 -18 02 26.4 19.1 C 704 – Lincoln Laboratory ETS, New Mexico MPS 287905
2008 04 29.36073 16 10 14.69 -18 02 21.6 18.8 C 704 – Lincoln Laboratory ETS, New Mexico MPS 287905
2008 04 29.37114 16 10 14.31 -18 02 17.5 19.5 C 704 – Lincoln Laboratory ETS, New Mexico MPS 287905
2008 05 06.36923 16 05 43.23 -17 16 59.6 19.3   704 – Lincoln Laboratory ETS, New Mexico MPS 248909
2008 05 06.37967 16 05 42.75 -17 16 55.5 19.3   704 – Lincoln Laboratory ETS, New Mexico MPS 248909
2008 05 06.39015 16 05 42.28 -17 16 50.3 19.7   704 – Lincoln Laboratory ETS, New Mexico MPS 248909
2008 05 14.35234 15 59 15.90 -16 22 05.4 18.5 V G96 – Mt. Lemmon Survey MPS 249776
2008 05 14.35854 15 59 15.57 -16 22 03.0 18.6 V G96 – Mt. Lemmon Survey MPS 249776
2008 05 14.36473 15 59 15.21 -16 22 00.0 18.4 V G96 – Mt. Lemmon Survey MPS 249776
2008 05 14.37100 15 59 14.89 -16 21 57.6 18.4 V G96 – Mt. Lemmon Survey MPS 249776
2008 05 28.30492 15 46 50.77 -14 48 24.6 18.6 V G96 – Mt. Lemmon Survey MPS 250380
2008 05 28.31029 15 46 50.48 -14 48 22.6 18.5 V G96 – Mt. Lemmon Survey MPS 250380
2008 05 28.31559 15 46 50.19 -14 48 20.5 18.6 V G96 – Mt. Lemmon Survey MPS 250380
2008 05 28.32087 15 46 49.90 -14 48 18.8 18.5 V G96 – Mt. Lemmon Survey MPS 250380
2008 06 23.18099 15 31 56.73 -13 01 00.4 19.7 V 691 – Steward Observatory, Kitt Peak-Spacewatch MPS 252004
2008 06 23.20797 15 31 56.34 -13 00 57.8 19.6 V 691 – Steward Observatory, Kitt Peak-Spacewatch MPS 252004
2008 06 23.23895 15 31 55.90 -13 00 52.7 19.4 V 691 – Steward Observatory, Kitt Peak-Spacewatch MPS 252004
2009 09 21.38767 03 19 06.09 +18 28 38.1 21.1 V G96 – Mt. Lemmon Survey MPS 296779
2009 09 21.39683 03 19 06.02 +18 28 37.5 21.0 V G96 – Mt. Lemmon Survey MPS 296779
2009 09 21.40590 03 19 05.95 +18 28 36.3 21.4 V G96 – Mt. Lemmon Survey MPS 296779
2009 09 21.41516 03 19 05.88 +18 28 34.8 21.0 V G96 – Mt. Lemmon Survey MPS 296779
2009 10 18.33969 03 05 51.43 +16 42 11.3 20.5 V G96 – Mt. Lemmon Survey MPS 300458
2009 10 18.34718 03 05 51.07 +16 42 08.6 20.4 V G96 – Mt. Lemmon Survey MPS 300458
2009 10 18.35475 03 05 50.64 +16 42 05.9 20.6 V G96 – Mt. Lemmon Survey MPS 300458
2009 10 18.36222 03 05 50.24 +16 42 03.5 20.6 V G96 – Mt. Lemmon Survey MPS 300458
2009 11 08.33074 02 45 33.84 +14 29 49.5 20.1 V G96 – Mt. Lemmon Survey MPS 303083
2009 11 08.33648 02 45 33.48 +14 29 47.4 20.0 V G96 – Mt. Lemmon Survey MPS 303083
2009 11 08.34212 02 45 33.12 +14 29 44.8 20.0 V G96 – Mt. Lemmon Survey MPS 303083
2009 11 08.34777 02 45 32.76 +14 29 42.7 20.1 V G96 – Mt. Lemmon Survey MPS 303083
2009 11 18.27537 02 35 55.86 +13 26 28.6 20.1 V G96 – Mt. Lemmon Survey MPS 304614
2009 11 18.28377 02 35 55.39 +13 26 25.6 20.5 V G96 – Mt. Lemmon Survey MPS 304614
2009 11 18.29243 02 35 54.88 +13 26 22.3 20.1 V G96 – Mt. Lemmon Survey MPS 304614
2009 11 18.30079 02 35 54.42 +13 26 19.2 20.1 V G96 – Mt. Lemmon Survey MPS 304614
2009 12 17.17882 02 19 08.25 +11 26 46.8 21.4 V G96 – Mt. Lemmon Survey MPS 308442
2009 12 17.18771 02 19 08.11 +11 26 45.3 20.8 V G96 – Mt. Lemmon Survey MPS 308442
2009 12 17.19655 02 19 08.00 +11 26 45.3 21.0 V G96 – Mt. Lemmon Survey MPS 308442
2009 12 17.20542 02 19 07.86 +11 26 43.9 20.8 V G96 – Mt. Lemmon Survey MPS 308442
2011 02 04.45559 10 27 13.966 +01 06 49.67 20.7 w F51 – Pan-STARRS 1, Haleakala MPS 379919
2011 02 04.46984 10 27 13.280 +01 06 52.69 20.7 w F51 – Pan-STARRS 1, Haleakala MPS 379919
2011 02 04.48430 10 27 12.584 +01 06 55.72 20.5 w F51 – Pan-STARRS 1, Haleakala MPS 379919
2011 02 04.49877 10 27 11.878 +01 06 58.78 20.7 w F51 – Pan-STARRS 1, Haleakala MPS 379919
2011 02 05.45795 10 26 27.381 +01 10 27.51 20.8 w F51 – Pan-STARRS 1, Haleakala MPS 379512
2011 02 05.47240 10 26 26.667 +01 10 30.78 20.7 w F51 – Pan-STARRS 1, Haleakala MPS 379512
2011 02 05.48681 10 26 25.949 +01 10 33.97 20.6 w F51 – Pan-STARRS 1, Haleakala MPS 379512
2011 03 01.27382 10 04 15.81 +03 28 06.5 19.9 V 703 – Catalina Sky Survey MPS 373187
2011 03 01.28192 10 04 15.38 +03 28 09.4 19.6 V 703 – Catalina Sky Survey MPS 373187
2011 03 01.29000 10 04 14.91 +03 28 12.6 19.7 V 703 – Catalina Sky Survey MPS 373187
2011 03 01.29803 10 04 14.48 +03 28 15.6 19.6 V 703 – Catalina Sky Survey MPS 373187
